QPF
0.02 0.03 0.05 0.05 0.02 0.02 0.03 0.04 0.05 0.05 0.06 0.06 0.05 0.04 0.03 0.02 0.03 0.03 0.04 0.05 0.05 0.06 0.06 0.06 0.05 0.04 0.04 0.04 0.03 0.02 0.04 0.05 0.03 0.02 0.02 0.03 0.03 0.04 0.04 0.04 0.03 0.03 0.03
0.03 0.07 0.16 0.12 0.05 0.03 0.02 0.04 0.06 0.07 0.08 0.09 0.07 0.05 0.03 0.02 0.03 0.03 0.04 0.06 0.06 0.06 0.06 0.06 0.05 0.07 0.09 0.08 0.06 0.04 0.05 0.04 0.03 0.03 0.02 0.01 0.01 0.02 0.03 0.05 0.04 0.03 0.02
0.04 0.06 0.18 0.17 0.08 0.04 0.04 0.04 0.06 0.08 0.08 0.08 0.07 0.05 0.04 0.04 0.03 0.04 0.05 0.08 0.08 0.07 0.06 0.06 0.06 0.07 0.08 0.07 0.06 0.08 0.06 0.04 0.02 0.02 0.02 0.02 0.01 0.01 0.01 0.02 0.03 0.02 0.02
0.04 0.05 0.07 0.09 0.06 0.04 0.04 0.05 0.07 0.08 0.11 0.11 0.09 0.06 0.05 0.07 0.04 0.05 0.06 0.06 0.08 0.07 0.07 0.06 0.08 0.07 0.07 0.08 0.08 0.09 0.07 0.05 0.03 0.02 0.02 0.03 0.03 0.02 0.02 0.02 0.02 0.02 0.01
0.05 0.06 0.07 0.10 0.08 0.06 0.06 0.05 0.07 0.09 0.10 0.12 0.07 0.06 0.04 0.07 0.07 0.06 0.07 0.06 0.07 0.07 0.07 0.05 0.04 0.04 0.04 0.06 0.07 0.08 0.07 0.06 0.05 0.03 0.03 0.04 0.05 0.03 0.02 0.01 0.02 0.02 0.01
0.06 0.07 0.06 0.09 0.11 0.10 0.10 0.08 0.10 0.09 0.09 0.10 0.05 0.06 0.06 0.06 0.06 0.06 0.05 0.04 0.06 0.05 0.05 0.04 0.05 0.04 0.03 0.04 0.05 0.08 0.08 0.07 0.05 0.04 0.05 0.05 0.05 0.04 0.03 0.02 0.01 0.01 0.01
0.08 0.09 0.07 0.09 0.10 0.13 0.14 0.11 0.10 0.09 0.09 0.09 0.09 0.08 0.07 0.05 0.06 0.06 0.04 0.04 0.04 0.03 0.04 0.05 0.06 0.05 0.03 0.02 0.03 0.04 0.07 0.07 0.06 0.06 0.06 0.06 0.05 0.04 0.03 0.02 0.02 0.01 0.01
0.08 0.07 0.10 0.09 0.10 0.13 0.16 0.12 0.11 0.10 0.10 0.09 0.11 0.11 0.09 0.09 0.08 0.05 0.04 0.03 0.04 0.04 0.04 0.04 0.05 0.05 0.04 0.06 0.04 0.02 0.03 0.05 0.06 0.06 0.05 0.04 0.04 0.03 0.03 0.02 0.03 0.03 0.02
0.06 0.06 0.08 0.10 0.13 0.11 0.13 0.16 0.14 0.14 0.15 0.12 0.11 0.13 0.10 0.09 0.07 0.05 0.03 0.03 0.04 0.05 0.05 0.04 0.02 0.03 0.04 0.05 0.05 0.02 0.01 0.02 0.03 0.04 0.03 0.05 0.04 0.02 0.02 0.02 0.03 0.03 0.02
0.05 0.07 0.08 0.10 0.12 0.11 0.13 0.14 0.14 0.15 0.18 0.15 0.11 0.09 0.09 0.08 0.08 0.07 0.04 0.02 0.02 0.03 0.05 0.04 0.02 0.04 0.04 0.04 0.05 0.02 0.01 0.01 0.02 0.02 0.03 0.04 0.03 0.02 0.01 0.02 0.03 0.04 0.03
0.05 0.05 0.06 0.07 0.09 0.09 0.09 0.10 0.12 0.12 0.13 0.13 0.11 0.09 0.07 0.07 0.07 0.06 0.05 0.04 0.02 0.02 0.02 0.03 0.03 0.03 0.04 0.05 0.06 0.02 0.01 0.01 0.01 0.01 0.02 0.02 0.03 0.03 0.02 0.02 0.02 0.04 0.05
0.05 0.04 0.06 0.07 0.07 0.07 0.08 0.09 0.09 0.08 0.09 0.10 0.09 0.07 0.07 0.06 0.06 0.05 0.04 0.04 0.03 0.02 0.02 0.03 0.03 0.04 0.03 0.04 0.03 0.01 0.01 0.01 0.01 0.01 0.01 0.02 0.02 0.02 0.02 0.02 0.02 0.03 0.04
0.04 0.05 0.05 0.07 0.07 0.08 0.08 0.10 0.08 0.06 0.07 0.08 0.07 0.06 0.07 0.06 0.04 0.04 0.03 0.03 0.03 0.03 0.03 0.02 0.02 0.02 0.02 0.02 0.05 0.02 0.01 0.01 0.01 0.01 0.01 0.01 0.01 0.01 0.02 0.01 0.01 0.01 0.02
0.05 0.07 0.05 0.05 0.05 0.06 0.05 0.07 0.05 0.04 0.05 0.05 0.05 0.08 0.07 0.05 0.04 0.04 0.04 0.05 0.05 0.03 0.03 0.02 0.02 0.02 0.02 0.03 0.03 0.02 0.02 0.01 0.01 0.01 0.01 0.01 0.01 0.01 0.01 0.01 0.01 0.01 0.01
0.04 0.05 0.05 0.05 0.04 0.04 0.05 0.06 0.04 0.03 0.03 0.04 0.05 0.06 0.05 0.05 0.05 0.03 0.04 0.05 0.05 0.05 0.03 0.02 0.02 0.01 0.02 0.03 0.04 0.03 0.05 0.04 0.02 0.02 0.02 0.01 0.01 0.00 0.00 0.00 0.01 0.01 0.00
0.04 0.05 0.05 0.04 0.03 0.03 0.04 0.06 0.05 0.04 0.05 0.05 0.06 0.06 0.06 0.05 0.05 0.03 0.03 0.03 0.03 0.05 0.04 0.03 0.03 0.01 0.02 0.02 0.02 0.03 0.04 0.04 0.04 0.03 0.02 0.01 0.01 0.01 0.01 0.01 0.01 0.01 0.00
0.06 0.05 0.06 0.07 0.07 0.06 0.06 0.07 0.06 0.05 0.06 0.05 0.04 0.05 0.05 0.05 0.05 0.04 0.04 0.03 0.03 0.05 0.04 0.02 0.02 0.02 0.02 0.03 0.03 0.03 0.03 0.03 0.03 0.02 0.01 0.01 0.01 0.01 0.02 0.01 0.01 0.01 0.01
0.04 0.04 0.05 0.05 0.05 0.07 0.08 0.08 0.09 0.08 0.07 0.05 0.04 0.04 0.03 0.03 0.04 0.04 0.03 0.03 0.03 0.03 0.03 0.04 0.04 0.03 0.03 0.04 0.03 0.04 0.03 0.02 0.02 0.01 0.01 0.01 0.01 0.01 0.01 0.01 0.01 0.01 0.01
0.04 0.05 0.05 0.05 0.05 0.05 0.05 0.04 0.06 0.06 0.05 0.05 0.05 0.04 0.03 0.03 0.02 0.03 0.03 0.03 0.02 0.02 0.03 0.03 0.03 0.03 0.03 0.03 0.03 0.03 0.02 0.02 0.02 0.02 0.02 0.01 0.01 0.01 0.01 0.01 0.01 0.01 0.01
0.04 0.05 0.06 0.05 0.06 0.05 0.05 0.04 0.04 0.05 0.05 0.06 0.06 0.05 0.04 0.04 0.03 0.03 0.03 0.04 0.04 0.04 0.04 0.04 0.03 0.04 0.04 0.03 0.04 0.05 0.04 0.03 0.03 0.02 0.02 0.02 0.02 0.02 0.02 0.02 0.02 0.02 0.02
0.04 0.05 0.06 0.07 0.07 0.06 0.04 0.04 0.04 0.04 0.05 0.06 0.06 0.05 0.05 0.05 0.05 0.05 0.06 0.06 0.06 0.07 0.06 0.05 0.05 0.05 0.05 0.05 0.04 0.04 0.04 0.04 0.04 0.02 0.03 0.02 0.02 0.02 0.01 0.02 0.02 0.01 0.01
0.05 0.05 0.05 0.06 0.06 0.05 0.05 0.05 0.05 0.04 0.06 0.07 0.07 0.07 0.06 0.05 0.05 0.05 0.05 0.06 0.07 0.07 0.08 0.08 0.07 0.07 0.08 0.07 0.07 0.06 0.05 0.04 0.05 0.04 0.04 0.03 0.02 0.02 0.01 0.01 0.01 0.01 0.01
0.05 0.04 0.04 0.05 0.05 0.04 0.03 0.03 0.04 0.06 0.09 0.11 0.10 0.10 0.09 0.07 0.06 0.05 0.06 0.05 0.05 0.06 0.06 0.07 0.08 0.09 0.09 0.10 0.09 0.08 0.08 0.08 0.08 0.06 0.06 0.04 0.03 0.03 0.02 0.01 0.01 0.01 0.01
0.04 0.04 0.03 0.03 0.04 0.03 0.03 0.02 0.03 0.04 0.05 0.07 0.08 0.07 0.07 0.06 0.05 0.05 0.05 0.05 0.05 0.06 0.06 0.06 0.08 0.10 0.13 0.14 0.12 0.09 0.10 0.09 0.06 0.05 0.05 0.05 0.04 0.04 0.03 0.02 0.02 0.01 0.01
0.03 0.03 0.03 0.04 0.06 0.06 0.05 0.05 0.06 0.07 0.09 0.11 0.12 0.11 0.11 0.09 0.08 0.06 0.06 0.05 0.06 0.07 0.08 0.09 0.10 0.10 0.10 0.09 0.08 0.08 0.08 0.07 0.06 0.05 0.06 0.06 0.04 0.04 0.03 0.03 0.02 0.02 0.01
0.04 0.03 0.04 0.04 0.05 0.05 0.05 0.06 0.10 0.10 0.14 0.18 0.21 0.21 0.19 0.13 0.11 0.09 0.07 0.06 0.06 0.06 0.06 0.07 0.06 0.05 0.06 0.06 0.06 0.05 0.07 0.08 0.08 0.07 0.06 0.06 0.05 0.04 0.04 0.03 0.03 0.02 0.02
MSLP
1015.89 1016.08 1016.21 1016.29 1016.33 1016.38 1016.45 1016.55 1016.66 1016.78 1016.88 1016.93 1016.94 1016.92 1016.89 1016.91 1017.00 1017.19 1017.49 1017.86 1018.26 1018.65 1018.98 1019.22 1019.38 1019.47 1019.52 1019.58 1019.68 1019.85 1020.08 1020.35 1020.64 1020.93 1021.18 1021.38 1021.55 1021.69 1021.81 1021.93 1022.05 1022.18 1022.31
1015.90 1016.05 1016.15 1016.19 1016.22 1016.25 1016.31 1016.41 1016.54 1016.69 1016.81 1016.89 1016.92 1016.91 1016.88 1016.88 1016.95 1017.10 1017.35 1017.68 1018.05 1018.43 1018.77 1019.04 1019.24 1019.38 1019.47 1019.57 1019.69 1019.86 1020.09 1020.35 1020.62 1020.90 1021.14 1021.35 1021.51 1021.65 1021.77 1021.89 1022.00 1022.12 1022.23
1015.87 1015.99 1016.06 1016.09 1016.10 1016.13 1016.21 1016.33 1016.49 1016.67 1016.82 1016.92 1016.95 1016.93 1016.88 1016.84 1016.84 1016.93 1017.11 1017.39 1017.73 1018.10 1018.46 1018.77 1019.03 1019.23 1019.38 1019.53 1019.68 1019.85 1020.06 1020.30 1020.56 1020.80 1021.03 1021.22 1021.38 1021.52 1021.64 1021.75 1021.87 1021.99 1022.10
1015.77 1015.87 1015.92 1015.95 1015.98 1016.03 1016.14 1016.30 1016.50 1016.70 1016.87 1016.98 1017.01 1016.96 1016.85 1016.74 1016.66 1016.66 1016.76 1016.98 1017.27 1017.63 1018.01 1018.36 1018.68 1018.95 1019.17 1019.36 1019.54 1019.73 1019.93 1020.15 1020.37 1020.59 1020.79 1020.96 1021.12 1021.26 1021.39 1021.52 1021.65 1021.79 1021.93
1015.58 1015.66 1015.71 1015.76 1015.82 1015.92 1016.08 1016.29 1016.53 1016.76 1016.94 1017.05 1017.05 1016.95 1016.79 1016.59 1016.42 1016.32 1016.33 1016.46 1016.71 1017.03 1017.41 1017.80 1018.16 1018.49 1018.77 1019.01 1019.22 1019.43 1019.63 1019.83 1020.03 1020.22 1020.40 1020.57 1020.72 1020.87 1021.02 1021.17 1021.33 1021.51 1021.69
1015.28 1015.35 1015.42 1015.50 1015.61 1015.77 1015.99 1016.26 1016.54 1016.81 1017.01 1017.10 1017.08 1016.94 1016.71 1016.43 1016.16 1015.97 1015.88 1015.92 1016.09 1016.37 1016.72 1017.11 1017.49 1017.85 1018.17 1018.46 1018.70 1018.93 1019.14 1019.34 1019.53 1019.71 1019.89 1020.06 1020.22 1020.38 1020.55 1020.73 1020.94 1021.15 1021.38
1014.88 1014.94 1015.03 1015.16 1015.34 1015.57 1015.86 1016.19 1016.53 1016.83 1017.05 1017.15 1017.11 1016.94 1016.66 1016.32 1015.98 1015.69 1015.51 1015.45 1015.53 1015.73 1016.02 1016.37 1016.74 1017.10 1017.43 1017.74 1018.01 1018.26 1018.49 1018.71 1018.91 1019.11 1019.30 1019.48 1019.66 1019.84 1020.03 1020.24 1020.47 1020.72 1020.99
1014.39 1014.45 1014.57 1014.75 1014.99 1015.31 1015.67 1016.07 1016.46 1016.81 1017.05 1017.17 1017.15 1016.98 1016.69 1016.33 1015.95 1015.60 1015.33 1015.18 1015.15 1015.25 1015.44 1015.70 1016.01 1016.33 1016.64 1016.95 1017.23 1017.51 1017.77 1018.02 1018.26 1018.49 1018.71 1018.92 1019.12 1019.31 1019.51 1019.73 1019.97 1020.23 1020.51
1013.82 1013.88 1014.03 1014.27 1014.58 1014.97 1015.41 1015.87 1016.32 1016.72 1017.02 1017.18 1017.21 1017.08 1016.84 1016.50 1016.12 1015.74 1015.42 1015.18 1015.05 1015.02 1015.08 1015.22 1015.41 1015.65 1015.91 1016.18 1016.47 1016.76 1017.06 1017.36 1017.65 1017.93 1018.19 1018.43 1018.65 1018.85 1019.05 1019.25 1019.47 1019.71 1019.97
1013.23 1013.29 1013.47 1013.75 1014.12 1014.57 1015.08 1015.60 1016.10 1016.55 1016.91 1017.15 1017.26 1017.23 1017.07 1016.81 1016.48 1016.13 1015.78 1015.48 1015.24 1015.08 1014.99 1014.98 1015.03 1015.15 1015.32 1015.54 1015.80 1016.10 1016.43 1016.78 1017.13 1017.46 1017.77 1018.04 1018.27 1018.47 1018.65 1018.82 1018.99 1019.18 1019.39
1012.65 1012.72 1012.91 1013.23 1013.65 1014.14 1014.68 1015.24 1015.79 1016.29 1016.72 1017.04 1017.26 1017.35 1017.32 1017.18 1016.95 1016.66 1016.33 1015.99 1015.67 1015.38 1015.14 1014.97 1014.86 1014.83 1014.89 1015.03 1015.25 1015.55 1015.90 1016.28 1016.68 1017.06 1017.41 1017.71 1017.96 1018.16 1018.31 1018.44 1018.55 1018.68 1018.83
1012.17 1012.23 1012.44 1012.77 1013.20 1013.70 1014.25 1014.82 1015.39 1015.93 1016.41 1016.83 1017.16 1017.39 1017.51 1017.52 1017.42 1017.22 1016.94 1016.59 1016.21 1015.82 1015.44 1015.10 1014.84 1014.67 1014.60 1014.64 1014.80 1015.07 1015.41 1015.82 1016.25 1016.67 1017.06 1017.39 1017.65 1017.85 1017.98 1018.07 1018.14 1018.21 1018.29
1011.85 1011.91 1012.11 1012.43 1012.85 1013.33 1013.85 1014.40 1014.95 1015.49 1016.01 1016.50 1016.93 1017.29 1017.55 1017.71 1017.75 1017.66 1017.44 1017.12 1016.70 1016.23 1015.75 1015.28 1014.87 1014.56 1014.37 1014.31 1014.39 1014.61 1014.93 1015.32 1015.76 1016.20 1016.61 1016.97 1017.25 1017.46 1017.59 1017.67 1017.72 1017.76 1017.81
1011.79 1011.83 1012.01 1012.30 1012.67 1013.09 1013.55 1014.04 1014.53 1015.05 1015.57 1016.08 1016.58 1017.04 1017.42 1017.71 1017.87 1017.87 1017.73 1017.44 1017.02 1016.50 1015.94 1015.37 1014.85 1014.42 1014.12 1013.96 1013.96 1014.10 1014.37 1014.73 1015.15 1015.58 1016.00 1016.36 1016.67 1016.90 1017.07 1017.17 1017.24 1017.28 1017.34
1012.05 1012.07 1012.21 1012.44 1012.74 1013.08 1013.44 1013.83 1014.24 1014.69 1015.16 1015.67 1016.18 1016.68 1017.14 1017.50 1017.75 1017.83 1017.75 1017.49 1017.08 1016.55 1015.94 1015.31 1014.72 1014.21 1013.82 1013.57 1013.48 1013.54 1013.72 1014.01 1014.37 1014.77 1015.16 1015.53 1015.85 1016.12 1016.33 1016.50 1016.62 1016.73 1016.83
1012.66 1012.66 1012.76 1012.92 1013.12 1013.35 1013.60 1013.87 1014.17 1014.52 1014.91 1015.36 1015.84 1016.33 1016.79 1017.18 1017.46 1017.58 1017.53 1017.30 1016.91 1016.38 1015.77 1015.12 1014.49 1013.93 1013.47 1013.15 1012.98 1012.94 1013.02 1013.21 1013.48 1013.79 1014.13 1014.47 1014.80 1015.10 1015.37 1015.61 1015.83 1016.02 1016.21
1013.63 1013.61 1013.65 1013.73 1013.84 1013.97 1014.10 1014.24 1014.42 1014.65 1014.93 1015.28 1015.68 1016.11 1016.52 1016.88 1017.13 1017.24 1017.19 1016.97 1016.59 1016.08 1015.49 1014.85 1014.22 1013.65 1013.17 1012.79 1012.53 1012.39 1012.36 1012.42 1012.56 1012.76 1013.00 1013.27 1013.57 1013.88 1014.19 1014.50 1014.81 1015.11 1015.40
1014.88 1014.83 1014.82 1014.84 1014.86 1014.88 1014.91 1014.94 1015.00 1015.11 1015.28 1015.51 1015.80 1016.12 1016.44 1016.72 1016.91 1016.97 1016.89 1016.66 1016.29 1015.80 1015.24 1014.64 1014.05 1013.49 1013.00 1012.59 1012.26 1012.02 1011.85 1011.76 1011.75 1011.79 1011.89 1012.06 1012.28 1012.55 1012.87 1013.23 1013.60 1013.99 1014.38
1016.28 1016.21 1016.17 1016.13 1016.09 1016.03 1015.98 1015.92 1015.89 1015.89 1015.95 1016.07 1016.24 1016.44 1016.64 1016.81 1016.90 1016.88 1016.75 1016.49 1016.12 1015.66 1015.14 1014.60 1014.05 1013.53 1013.06 1012.62 1012.24 1011.91 1011.61 1011.37 1011.17 1011.03 1010.96 1010.97 1011.07 1011.25 1011.52 1011.87 1012.27 1012.70 1013.15
1017.70 1017.62 1017.55 1017.48 1017.40 1017.30 1017.19 1017.08 1016.98 1016.91 1016.89 1016.91 1016.97 1017.05 1017.13 1017.17 1017.15 1017.05 1016.85 1016.56 1016.18 1015.74 1015.27 1014.78 1014.29 1013.82 1013.37 1012.94 1012.52 1012.10 1011.69 1011.29 1010.92 1010.58 1010.32 1010.14 1010.07 1010.12 1010.28 1010.55 1010.91 1011.34 1011.80
1019.01 1018.93 1018.85 1018.77 1018.67 1018.55 1018.42 1018.29 1018.16 1018.05 1017.97 1017.92 1017.89 1017.87 1017.84 1017.77 1017.65 1017.46 1017.20 1016.87 1016.48 1016.06 1015.62 1015.18 1014.75 1014.33 1013.91 1013.49 1013.04 1012.57 1012.06 1011.53 1011.00 1010.49 1010.03 1009.65 1009.39 1009.26 1009.27 1009.41 1009.67 1010.02 1010.44
1020.13 1020.05 1019.98 1019.90 1019.81 1019.70 1019.57 1019.44 1019.31 1019.18 1019.07 1018.97 1018.88 1018.78 1018.67 1018.52 1018.31 1018.05 1017.73 1017.37 1016.97 1016.55 1016.14 1015.73 1015.35 1014.97 1014.58 1014.18 1013.72 1013.22 1012.65 1012.02 1011.37 1010.70 1010.08 1009.52 1009.07 1008.75 1008.58 1008.55 1008.67 1008.90 1009.21
1021.02 1020.96 1020.90 1020.84 1020.76 1020.68 1020.57 1020.46 1020.33 1020.21 1020.08 1019.96 1019.83 1019.68 1019.51 1019.30 1019.03 1018.72 1018.36 1017.96 1017.54 1017.12 1016.72 1016.33 1015.97 1015.62 1015.25 1014.86 1014.42 1013.90 1013.31 1012.64 1011.91 1011.15 1010.41 1009.71 1009.10 1008.61 1008.26 1008.06 1008.00 1008.07 1008.25
1021.72 1021.69 1021.66 1021.62 1021.57 1021.50 1021.42 1021.32 1021.21 1021.09 1020.96 1020.82 1020.66 1020.49 1020.27 1020.02 1019.72 1019.37 1018.98 1018.55 1018.11 1017.68 1017.26 1016.87 1016.50 1016.15 1015.80 1015.42 1014.99 1014.49 1013.90 1013.24 1012.50 1011.71 1010.91 1010.14 1009.43 1008.81 1008.31 1007.94 1007.71 1007.61 1007.62
1022.33 1022.33 1022.32 1022.31 1022.29 1022.25 1022.18 1022.09 1021.98 1021.85 1021.71 1021.55 1021.37 1021.16 1020.93 1020.65 1020.32 1019.94 1019.53 1019.08 1018.61 1018.15 1017.70 1017.28 1016.88 1016.51 1016.14 1015.76 1015.35 1014.88 1014.33 1013.71 1013.01 1012.26 1011.47 1010.69 1009.94 1009.25 1008.65 1008.15 1007.77 1007.50 1007.34
1022.94 1022.97 1023.01 1023.03 1023.03 1023.00 1022.94 1022.84 1022.71 1022.56 1022.38 1022.19 1021.98 1021.74 1021.47 1021.17 1020.82 1020.43 1019.99 1019.52 1019.02 1018.51 1018.02 1017.54 1017.10 1016.68 1016.28 1015.89 1015.49 1015.04 1014.55 1014.00 1013.39 1012.71 1011.99 1011.25 1010.51 1009.81 1009.15 1008.56 1008.06 1007.64 1007.32
Thickness
5760 5759 5758 5756 5757 5755 5753 5751 5750 5749 5748 5748 5748 5748 5748 5747 5746 5744 5739 5733 5731 5729 5728 5726 5724 5723 5721 5720 5718 5717 5715 5714 5712 5711 5709 5708 5706 5705 5704 5702 5701 5700 5699
5759 5757 5756 5754 5755 5753 5753 5750 5749 5747 5747 5747 5746 5746 5746 5746 5744 5742 5740 5735 5731 5729 5727 5726 5725 5723 5721 5720 5718 5716 5715 5713 5712 5710 5709 5708 5706 5705 5703 5702 5700 5699 5698
5757 5756 5755 5754 5754 5752 5750 5749 5748 5747 5746 5746 5745 5745 5745 5744 5743 5741 5739 5737 5734 5730 5728 5726 5725 5724 5722 5720 5719 5717 5715 5713 5711 5710 5709 5707 5706 5705 5703 5702 5700 5699 5698
5756 5754 5755 5754 5751 5751 5750 5749 5748 5747 5745 5744 5744 5745 5745 5742 5741 5740 5739 5737 5735 5734 5730 5727 5726 5724 5722 5721 5719 5717 5715 5713 5712 5710 5709 5707 5706 5705 5703 5702 5700 5699 5698
5755 5753 5753 5752 5750 5750 5749 5749 5748 5746 5743 5742 5743 5743 5744 5743 5741 5740 5739 5738 5735 5734 5733 5729 5727 5725 5723 5722 5720 5718 5716 5714 5712 5711 5709 5707 5706 5705 5703 5702 5701 5700 5698
5754 5753 5752 5750 5750 5749 5748 5746 5744 5743 5742 5741 5743 5743 5743 5743 5742 5741 5740 5739 5737 5736 5734 5733 5729 5727 5724 5723 5721 5719 5717 5716 5713 5712 5710 5708 5707 5705 5704 5703 5701 5700 5699
5754 5752 5752 5749 5748 5748 5746 5746 5744 5742 5742 5741 5739 5738 5740 5743 5743 5742 5741 5740 5739 5737 5735 5733 5732 5731 5727 5724 5722 5720 5718 5717 5715 5713 5711 5709 5708 5706 5705 5703 5701 5700 5699
5753 5753 5750 5749 5748 5747 5745 5744 5742 5741 5741 5741 5737 5733 5732 5735 5738 5744 5741 5740 5740 5738 5736 5735 5732 5730 5730 5728 5725 5722 5719 5718 5716 5714 5712 5710 5708 5707 5705 5703 5702 5701 5699
5753 5752 5751 5750 5748 5747 5745 5743 5742 5740 5738 5739 5740 5734 5729 5727 5734 5739 5740 5741 5739 5738 5738 5736 5734 5732 5730 5729 5727 5724 5721 5719 5717 5715 5713 5711 5709 5707 5706 5704 5703 5701 5700
5754 5752 5751 5749 5747 5747 5745 5744 5745 5742 5738 5737 5737 5737 5736 5736 5731 5731 5738 5741 5740 5738 5738 5738 5736 5733 5731 5730 5727 5725 5722 5719 5717 5715 5713 5711 5709 5708 5706 5705 5703 5702 5701
5754 5752 5751 5749 5747 5747 5745 5745 5743 5742 5740 5738 5737 5737 5736 5735 5735 5731 5730 5735 5739 5741 5740 5738 5737 5735 5733 5731 5729 5727 5723 5720 5717 5715 5713 5711 5710 5708 5706 5705 5704 5702 5701
5754 5753 5751 5749 5748 5747 5745 5744 5742 5741 5740 5739 5738 5738 5736 5735 5735 5734 5732 5732 5734 5738 5740 5739 5738 5736 5734 5732 5730 5727 5723 5720 5718 5715 5713 5711 5710 5708 5706 5705 5703 5702 5701
5755 5752 5752 5749 5748 5747 5745 5744 5742 5741 5740 5738 5736 5737 5738 5738 5739 5738 5735 5734 5734 5737 5737 5738 5739 5737 5735 5733 5730 5726 5723 5721 5718 5716 5714 5712 5710 5708 5706 5704 5703 5701 5700
5758 5755 5752 5750 5748 5747 5746 5744 5743 5741 5740 5738 5738 5737 5736 5738 5739 5739 5736 5733 5730 5733 5734 5735 5738 5737 5735 5733 5730 5726 5724 5721 5718 5716 5714 5711 5709 5707 5705 5703 5701 5700 5698
5758 5755 5753 5750 5749 5747 5746 5743 5743 5741 5740 5739 5739 5737 5737 5739 5739 5739 5738 5734 5729 5725 5727 5733 5734 5736 5733 5731 5729 5726 5724 5721 5718 5715 5713 5711 5709 5707 5705 5703 5701 5699 5697
5756 5754 5752 5750 5748 5746 5745 5743 5742 5741 5739 5739 5738 5737 5736 5738 5737 5737 5737 5735 5733 5729 5726 5733 5733 5735 5732 5731 5727 5725 5723 5720 5717 5715 5712 5710 5708 5706 5704 5702 5700 5698 5696
5754 5752 5750 5748 5747 5745 5744 5742 5742 5741 5739 5738 5738 5737 5736 5736 5735 5736 5735 5734 5732 5730 5724 5729 5733 5732 5728 5726 5725 5723 5722 5720 5718 5714 5712 5709 5707 5705 5703 5701 5699 5697 5695
5753 5752 5749 5747 5746 5745 5744 5742 5741 5741 5739 5738 5737 5736 5736 5735 5733 5732 5732 5731 5730 5728 5725 5722 5725 5726 5724 5723 5722 5720 5721 5721 5718 5715 5711 5708 5706 5703 5701 5699 5697 5695 5694
5751 5750 5748 5746 5745 5744 5743 5743 5742 5741 5739 5738 5737 5735 5735 5733 5730 5730 5728 5728 5728 5727 5724 5722 5721 5722 5722 5721 5719 5718 5719 5716 5716 5714 5710 5707 5704 5701 5699 5697 5695 5693 5691
5750 5748 5746 5745 5743 5743 5742 5741 5740 5739 5738 5737 5735 5734 5733 5731 5728 5726 5725 5723 5722 5721 5719 5718 5718 5718 5717 5716 5714 5713 5712 5713 5712 5713 5710 5706 5702 5699 5697 5694 5692 5690 5688
5748 5746 5744 5742 5741 5740 5740 5739 5737 5736 5734 5733 5732 5731 5730 5727 5725 5722 5723 5720 5718 5716 5715 5714 5713 5712 5711 5708 5708 5709 5707 5707 5707 5707 5705 5704 5701 5698 5695 5691 5688 5686 5683
5744 5742 5740 5738 5736 5737 5735 5733 5733 5733 5731 5729 5727 5727 5726 5723 5720 5716 5714 5712 5710 5709 5709 5707 5707 5704 5702 5702 5701 5701 5700 5698 5697 5701 5697 5698 5698 5695 5692 5689 5685 5681 5678
5740 5737 5736 5734 5733 5731 5728 5727 5725 5726 5725 5724 5723 5722 5722 5720 5715 5713 5709 5705 5703 5701 5699 5700 5699 5697 5696 5696 5694 5693 5691 5690 5688 5691 5689 5688 5688 5686 5684 5682 5678 5675 5672
5735 5733 5731 5730 5728 5726 5722 5721 5719 5719 5719 5718 5717 5715 5713 5711 5710 5707 5705 5702 5699 5697 5694 5692 5691 5690 5689 5687 5686 5685 5684 5683 5682 5683 5681 5677 5679 5677 5677 5674 5669 5666 5663
5729 5728 5726 5724 5722 5719 5716 5715 5713 5714 5713 5711 5709 5707 5705 5703 5699 5697 5696 5693 5691 5688 5686 5683 5681 5679 5677 5676 5675 5676 5675 5674 5673 5674 5672 5668 5669 5668 5667 5665 5660 5656 5653
5725 5723 5720 5718 5716 5713 5710 5709 5708 5709 5707 5704 5702 5699 5695 5693 5689 5687 5687 5684 5681 5679 5678 5676 5673 5671 5669 5667 5664 5663 5664 5663 5662 5662 5660 5657 5656 5655 5655 5656 5652 5647 5643